Time,TemperatureF,DewpointF,PressureIn,WindDirection,WindDirectionDegrees,WindSpeedMPH,WindSpeedGustMPH,Humidity,HourlyPrecipIn,Conditions,Clouds,dailyrainin,SoftwareType,DateUTC
2013-05-24 00:00:00,61.6,55.4,30.51,East,90,1.0,3.0,80,0.00,,---,0.00,VWS V14.01,2013-05-24 05:00:00,
2013-05-24 00:10:00,61.3,55.4,30.51,East,90,2.0,6.0,81,0.00,,---,0.00,VWS V14.01,2013-05-24 05:10:00,
2013-05-24 00:20:00,61.2,55.7,30.52,East,90,3.0,6.0,82,0.00,,---,0.00,VWS V14.01,2013-05-24 05:20:00,
2013-05-24 00:30:00,61.0,55.5,30.52,East,90,3.0,6.0,82,0.00,,---,0.00,VWS V14.01,2013-05-24 05:30:00,
2013-05-24 00:40:00,60.7,55.5,30.52,East,90,4.0,6.0,83,0.00,,---,0.00,VWS V14.01,2013-05-24 05:40:00,
2013-05-24 00:50:00,60.7,55.5,30.52,East,90,4.0,9.0,83,0.00,,---,0.00,VWS V14.01,2013-05-24 05:50:00,
2013-05-24 01:00:00,60.5,55.7,30.52,East,90,4.0,7.0,84,0.00,,---,0.00,VWS V14.01,2013-05-24 06:00:00,
2013-05-24 01:10:00,60.4,55.5,30.52,East,90,4.0,9.0,84,0.00,,---,0.00,VWS V14.01,2013-05-24 06:10:00,
2013-05-24 01:20:00,60.1,55.3,30.52,East,90,4.0,7.0,84,0.00,,---,0.00,VWS V14.01,2013-05-24 06:20:00,
2013-05-24 01:30:00,59.9,55.1,30.52,East,90,4.0,8.0,84,0.00,,---,0.00,VWS V14.01,2013-05-24 06:30:00,
2013-05-24 01:40:00,59.8,55.0,30.52,East,90,5.0,10.0,84,0.00,,---,0.00,VWS V14.01,2013-05-24 06:40:00,
2013-05-24 01:50:00,59.6,55.1,30.52,East,90,5.0,11.0,85,0.00,,---,0.00,VWS V14.01,2013-05-24 06:50:00,
2013-05-24 02:00:00,59.5,55.0,30.52,East,90,6.0,11.0,85,0.00,,---,0.00,VWS V14.01,2013-05-24 07:00:00,
2013-05-24 02:10:00,59.3,54.8,30.52,East,90,5.0,10.0,85,0.00,,---,0.00,VWS V14.01,2013-05-24 07:10:00,
2013-05-24 02:20:00,59.2,54.7,30.52,East,90,5.0,9.0,85,0.00,,---,0.00,VWS V14.01,2013-05-24 07:20:00,
2013-05-24 02:30:00,58.9,54.4,30.52,East,90,5.0,10.0,85,0.00,,---,0.00,VWS V14.01,2013-05-24 07:30:00,
2013-05-24 02:40:00,58.9,54.4,30.52,East,90,5.0,10.0,85,0.00,,---,0.00,VWS V14.01,2013-05-24 07:40:00,
2013-05-24 02:50:00,58.6,54.4,30.52,East,90,5.0,10.0,86,0.00,,---,0.00,VWS V14.01,2013-05-24 07:50:00,
2013-05-24 03:00:00,58.6,54.4,30.52,East,90,6.0,11.0,86,0.00,,---,0.00,VWS V14.01,2013-05-24 08:00:00,
2013-05-24 03:10:00,58.4,54.2,30.52,East,90,6.0,12.0,86,0.00,,---,0.00,VWS V14.01,2013-05-24 08:10:00,
2013-05-24 03:20:00,58.3,54.1,30.53,East,90,6.0,11.0,86,0.00,,---,0.00,VWS V14.01,2013-05-24 08:20:00,
2013-05-24 03:30:00,58.1,53.9,30.52,East,90,6.0,10.0,86,0.00,,---,0.00,VWS V14.01,2013-05-24 08:30:00,
2013-05-24 03:40:00,58.0,53.8,30.52,East,90,7.0,11.0,86,0.00,,---,0.00,VWS V14.01,2013-05-24 08:40:00,
2013-05-24 03:50:00,58.0,53.8,30.52,East,90,6.0,12.0,86,0.00,,---,0.00,VWS V14.01,2013-05-24 08:50:00,
2013-05-24 04:00:00,57.8,53.7,30.53,East,90,6.0,12.0,86,0.00,,---,0.00,VWS V14.01,2013-05-24 09:00:00,
2013-05-24 04:10:00,57.6,53.5,30.53,East,90,5.0,11.0,86,0.00,,---,0.00,VWS V14.01,2013-05-24 09:10:00,
2013-05-24 04:20:00,57.5,53.3,30.54,East,90,6.0,11.0,86,0.00,,---,0.00,VWS V14.01,2013-05-24 09:20:00,
2013-05-24 04:30:00,57.3,53.5,30.54,East,90,7.0,12.0,87,0.00,,---,0.00,VWS V14.01,2013-05-24 09:30:00,
2013-05-24 04:40:00,57.2,53.4,30.54,East,90,7.0,13.0,87,0.00,,---,0.00,VWS V14.01,2013-05-24 09:40:00,
2013-05-24 04:50:00,57.0,53.2,30.55,East,90,7.0,13.0,87,0.00,,---,0.00,VWS V14.01,2013-05-24 09:50:00,
2013-05-24 05:00:00,56.9,53.1,30.55,East,90,7.0,12.0,87,0.00,,---,0.00,VWS V14.01,2013-05-24 10:00:00,
2013-05-24 05:10:00,56.9,53.1,30.55,East,90,6.0,11.0,87,0.00,,---,0.00,VWS V14.01,2013-05-24 10:10:00,
2013-05-24 05:20:00,56.7,52.9,30.56,East,90,6.0,11.0,87,0.00,,---,0.00,VWS V14.01,2013-05-24 10:20:00,
2013-05-24 05:30:00,56.6,52.8,30.57,East,90,6.0,11.0,87,0.00,,---,0.00,VWS V14.01,2013-05-24 10:30:00,
2013-05-24 05:40:00,56.6,52.8,30.57,East,90,7.0,11.0,87,0.00,,---,0.00,VWS V14.01,2013-05-24 10:40:00,
2013-05-24 05:50:00,56.5,52.7,30.58,East,90,6.0,10.0,87,0.00,,---,0.00,VWS V14.01,2013-05-24 10:50:00,
2013-05-24 06:00:00,56.3,52.8,30.59,East,90,6.0,11.0,88,0.00,,---,0.00,VWS V14.01,2013-05-24 11:00:00,
2013-05-24 06:10:00,56.2,52.7,30.59,East,90,6.0,11.0,88,0.00,,---,0.00,VWS V14.01,2013-05-24 11:10:00,
2013-05-24 06:20:00,56.2,52.7,30.59,East,90,7.0,13.0,88,0.00,,---,0.00,VWS V14.01,2013-05-24 11:20:00,
2013-05-24 06:30:00,56.2,52.7,30.59,East,90,8.0,14.0,88,0.00,,---,0.00,VWS V14.01,2013-05-24 11:30:00,
2013-05-24 06:40:00,56.2,52.7,30.59,East,90,7.0,12.0,88,0.00,,---,0.00,VWS V14.01,2013-05-24 11:40:00,
2013-05-24 06:50:00,56.2,52.7,30.59,East,90,8.0,14.0,88,0.00,,---,0.00,VWS V14.01,2013-05-24 11:50:00,
2013-05-24 07:00:00,56.3,52.8,30.59,East,90,7.0,12.0,88,0.00,,---,0.00,VWS V14.01,2013-05-24 12:00:00,
2013-05-24 07:10:00,56.6,53.1,30.59,East,90,6.0,13.0,88,0.00,,---,0.00,VWS V14.01,2013-05-24 12:10:00,
2013-05-24 07:20:00,57.0,53.5,30.60,East,90,7.0,13.0,88,0.00,,---,0.00,VWS V14.01,2013-05-24 12:20:00,
2013-05-24 07:30:00,57.5,54.0,30.60,East,90,7.0,12.0,88,0.00,,---,0.00,VWS V14.01,2013-05-24 12:30:00,
2013-05-24 07:40:00,58.0,54.5,30.60,East,90,8.0,13.0,88,0.00,,---,0.00,VWS V14.01,2013-05-24 12:40:00,
2013-05-24 07:50:00,58.6,54.8,30.60,East,90,6.0,11.0,87,0.00,,---,0.00,VWS V14.01,2013-05-24 12:50:00,
2013-05-24 08:00:00,59.0,54.8,30.60,ESE,112,8.0,14.0,86,0.00,,---,0.00,VWS V14.01,2013-05-24 13:00:00,
2013-05-24 08:10:00,59.6,54.8,30.60,East,90,10.0,17.0,84,0.00,,---,0.00,VWS V14.01,2013-05-24 13:10:00,
2013-05-24 08:20:00,60.1,54.6,30.61,East,90,10.0,16.0,82,0.00,,---,0.00,VWS V14.01,2013-05-24 13:20:00,
2013-05-24 08:30:00,60.9,54.7,30.61,East,90,8.0,15.0,80,0.00,,---,0.00,VWS V14.01,2013-05-24 13:30:00,
2013-05-24 08:40:00,61.6,54.7,30.61,East,90,10.0,16.0,78,0.00,,---,0.00,VWS V14.01,2013-05-24 13:40:00,
2013-05-24 08:50:00,62.4,54.8,30.61,East,90,9.0,15.0,76,0.00,,---,0.00,VWS V14.01,2013-05-24 13:50:00,
2013-05-24 09:00:00,63.2,54.8,30.62,East,90,9.0,14.0,74,0.00,,---,0.00,VWS V14.01,2013-05-24 14:00:00,
2013-05-24 09:10:00,64.0,55.2,30.62,ESE,112,8.0,14.0,73,0.00,,---,0.00,VWS V14.01,2013-05-24 14:10:00,
2013-05-24 09:20:00,65.0,55.8,30.63,East,90,7.0,11.0,72,0.00,,---,0.00,VWS V14.01,2013-05-24 14:20:00,
2013-05-24 09:30:00,65.6,55.2,30.63,East,90,7.0,12.0,69,0.00,,---,0.00,VWS V14.01,2013-05-24 14:30:00,
2013-05-24 09:40:00,66.3,55.0,30.63,ESE,112,8.0,13.0,67,0.00,,---,0.00,VWS V14.01,2013-05-24 14:40:00,
2013-05-24 09:50:00,67.1,55.4,30.62,ESE,112,7.0,12.0,66,0.00,,---,0.00,VWS V14.01,2013-05-24 14:50:00,
2013-05-24 10:00:00,67.9,56.1,30.62,ESE,112,8.0,12.0,66,0.00,,---,0.00,VWS V14.01,2013-05-24 15:00:00,
2013-05-24 10:10:00,68.8,56.6,30.62,East,90,8.0,12.0,65,0.00,,---,0.00,VWS V14.01,2013-05-24 15:10:00,
2013-05-24 10:20:00,69.8,57.1,30.62,ESE,112,7.0,12.0,64,0.00,,---,0.00,VWS V14.01,2013-05-24 15:20:00,
2013-05-24 10:30:00,70.4,57.2,30.62,East,90,8.0,15.0,63,0.00,,---,0.00,VWS V14.01,2013-05-24 15:30:00,
2013-05-24 10:40:00,71.1,57.4,30.62,East,90,8.0,13.0,62,0.00,,---,0.00,VWS V14.01,2013-05-24 15:40:00,
2013-05-24 10:50:00,72.1,58.4,30.61,ESE,112,7.0,14.0,62,0.00,,---,0.00,VWS V14.01,2013-05-24 15:50:00,
2013-05-24 11:00:00,72.3,57.7,30.61,ESE,112,9.0,13.0,60,0.00,,---,0.00,VWS V14.01,2013-05-24 16:00:00,
2013-05-24 11:10:00,73.2,59.0,30.61,ESE,112,6.0,15.0,61,0.00,,---,0.00,VWS V14.01,2013-05-24 16:10:00,
2013-05-24 11:20:00,73.5,58.3,30.61,ESE,112,9.0,14.0,59,0.00,,---,0.00,VWS V14.01,2013-05-24 16:20:00,
2013-05-24 11:30:00,74.0,58.8,30.61,East,90,8.0,13.0,59,0.00,,---,0.00,VWS V14.01,2013-05-24 16:30:00,
2013-05-24 11:40:00,74.7,59.0,30.61,East,90,7.0,13.0,58,0.00,,---,0.00,VWS V14.01,2013-05-24 16:40:00,
2013-05-24 11:50:00,74.9,58.7,30.61,East,90,7.0,13.0,57,0.00,,---,0.00,VWS V14.01,2013-05-24 16:50:00,
2013-05-24 12:00:00,75.1,58.3,30.61,East,90,6.0,12.0,56,0.00,,---,0.00,VWS V14.01,2013-05-24 17:00:00,
2013-05-24 12:10:00,75.4,59.6,30.61,ESE,112,6.0,13.0,58,0.00,,---,0.00,VWS V14.01,2013-05-24 17:10:00,
2013-05-24 12:20:00,75.4,58.6,30.60,East,90,7.0,12.0,56,0.00,,---,0.00,VWS V14.01,2013-05-24 17:20:00,
2013-05-24 12:30:00,76.3,60.9,30.59,East,90,8.0,12.0,59,0.00,,---,0.00,VWS V14.01,2013-05-24 17:30:00,
2013-05-24 12:40:00,77.0,59.6,30.59,East,90,6.0,12.0,55,0.00,,---,0.00,VWS V14.01,2013-05-24 17:40:00,
2013-05-24 12:50:00,77.2,60.8,30.58,East,90,6.0,13.0,57,0.00,,---,0.00,VWS V14.01,2013-05-24 17:50:00,
2013-05-24 13:00:00,77.4,62.0,30.58,ESE,112,6.0,12.0,59,0.00,,---,0.00,VWS V14.01,2013-05-24 18:00:00,
2013-05-24 13:10:00,77.2,61.3,30.58,ESE,112,7.0,14.0,58,0.00,,---,0.00,VWS V14.01,2013-05-24 18:10:00,
2013-05-24 13:20:00,78.1,61.6,30.58,ESE,112,6.0,14.0,57,0.00,,---,0.00,VWS V14.01,2013-05-24 18:20:00,
2013-05-24 13:30:00,78.5,61.5,30.57,ESE,112,6.0,13.0,56,0.00,,---,0.00,VWS V14.01,2013-05-24 18:30:00,
2013-05-24 13:40:00,78.5,62.0,30.57,ESE,112,7.0,13.0,57,0.00,,---,0.00,VWS V14.01,2013-05-24 18:40:00,
2013-05-24 13:50:00,78.6,62.1,30.57,East,90,8.0,14.0,57,0.00,,---,0.00,VWS V14.01,2013-05-24 18:50:00,
2013-05-24 14:00:00,79.4,60.8,30.57,ESE,112,6.0,13.0,53,0.00,,---,0.00,VWS V14.01,2013-05-24 19:00:00,
2013-05-24 14:10:00,79.9,62.3,30.57,ESE,112,5.0,11.0,55,0.00,,---,0.00,VWS V14.01,2013-05-24 19:10:00,
2013-05-24 14:20:00,79.9,62.3,30.56,SE,135,6.0,11.0,55,0.00,,---,0.00,VWS V14.01,2013-05-24 19:20:00,
2013-05-24 14:30:00,79.9,62.8,30.56,East,90,6.0,15.0,56,0.00,,---,0.00,VWS V14.01,2013-05-24 19:30:00,
2013-05-24 14:40:00,80.7,61.5,30.56,East,90,4.0,9.0,52,0.00,,---,0.00,VWS V14.01,2013-05-24 19:40:00,
2013-05-24 14:50:00,80.3,63.7,30.56,East,90,5.0,10.0,57,0.00,,---,0.00,VWS V14.01,2013-05-24 19:50:00,
2013-05-24 15:00:00,80.9,62.7,30.55,SE,135,3.0,9.0,54,0.00,,---,0.00,VWS V14.01,2013-05-24 20:00:00,
2013-05-24 15:10:00,81.2,63.0,30.55,East,90,5.0,11.0,54,0.00,,---,0.00,VWS V14.01,2013-05-24 20:10:00,
2013-05-24 15:20:00,81.6,64.9,30.55,East,90,4.0,12.0,57,0.00,,---,0.00,VWS V14.01,2013-05-24 20:20:00,
2013-05-24 15:30:00,81.4,63.2,30.54,ESE,112,4.0,12.0,54,0.00,,---,0.00,VWS V14.01,2013-05-24 20:30:00,
2013-05-24 15:40:00,81.8,62.5,30.54,East,90,4.0,9.0,52,0.00,,---,0.00,VWS V14.01,2013-05-24 20:40:00,
2013-05-24 15:50:00,81.6,61.7,30.53,ESE,112,5.0,12.0,51,0.00,,---,0.00,VWS V14.01,2013-05-24 20:50:00,
2013-05-24 16:00:00,80.1,62.0,30.53,SE,135,5.0,10.0,54,0.00,,---,0.00,VWS V14.01,2013-05-24 21:00:00,
2013-05-24 16:10:00,81.8,63.5,30.53,ESE,112,4.0,10.0,54,0.00,,---,0.00,VWS V14.01,2013-05-24 21:10:00,
2013-05-24 16:20:00,82.2,63.4,30.52,SE,135,5.0,11.0,53,0.00,,---,0.00,VWS V14.01,2013-05-24 21:20:00,
2013-05-24 16:30:00,82.2,62.8,30.51,ESE,112,5.0,12.0,52,0.00,,---,0.00,VWS V14.01,2013-05-24 21:30:00,
2013-05-24 16:40:00,82.6,64.3,30.51,ESE,112,4.0,6.0,54,0.00,,---,0.00,VWS V14.01,2013-05-24 21:40:00,
2013-05-24 16:50:00,82.0,62.1,30.51,SE,135,3.0,11.0,51,0.00,,---,0.00,VWS V14.01,2013-05-24 21:50:00,
2013-05-24 17:00:00,81.6,61.7,30.51,ESE,112,3.0,9.0,51,0.00,,---,0.00,VWS V14.01,2013-05-24 22:00:00,
2013-05-24 17:10:00,82.2,62.3,30.51,SE,135,4.0,11.0,51,0.00,,---,0.00,VWS V14.01,2013-05-24 22:10:00,
2013-05-24 17:20:00,80.5,62.9,30.51,ESE,112,4.0,8.0,55,0.00,,---,0.00,VWS V14.01,2013-05-24 22:20:00,
2013-05-24 17:30:00,79.9,60.7,30.51,East,90,4.0,10.0,52,0.00,,---,0.00,VWS V14.01,2013-05-24 22:30:00,
2013-05-24 17:40:00,79.8,61.7,30.51,East,90,4.0,9.0,54,0.00,,---,0.00,VWS V14.01,2013-05-24 22:40:00,
2013-05-24 17:50:00,80.5,62.9,30.51,SE,135,3.0,10.0,55,0.00,,---,0.00,VWS V14.01,2013-05-24 22:50:00,
2013-05-24 18:00:00,78.1,60.6,30.50,ESE,112,2.0,7.0,55,0.00,,---,0.00,VWS V14.01,2013-05-24 23:00:00,
2013-05-24 18:10:00,78.1,61.6,30.50,ESE,112,2.0,7.0,57,0.00,,---,0.00,VWS V14.01,2013-05-24 23:10:00,
2013-05-24 18:20:00,77.0,60.6,30.50,East,90,1.0,6.0,57,0.00,,---,0.00,VWS V14.01,2013-05-24 23:20:00,
2013-05-24 18:30:00,77.4,61.0,30.51,SSW,202,2.0,7.0,57,0.00,,---,0.00,VWS V14.01,2013-05-24 23:30:00,
2013-05-24 18:40:00,77.0,61.1,30.51,SSW,202,3.0,6.0,58,0.00,,---,0.00,VWS V14.01,2013-05-24 23:40:00,
2013-05-24 18:50:00,76.3,60.9,30.50,SSW,202,4.0,9.0,59,0.00,,---,0.00,VWS V14.01,2013-05-24 23:50:00,
2013-05-24 19:00:00,75.8,60.0,30.51,SSW,202,6.0,12.0,58,0.00,,---,0.00,VWS V14.01,2013-05-25 00:00:00,
2013-05-24 19:10:00,74.9,60.6,30.51,SSW,202,4.0,11.0,61,0.00,,---,0.00,VWS V14.01,2013-05-25 00:10:00,
2013-05-24 19:20:00,74.6,60.3,30.50,SSW,202,4.0,9.0,61,0.00,,---,0.00,VWS V14.01,2013-05-25 00:20:00,
2013-05-24 19:30:00,74.0,59.7,30.51,SSW,202,4.0,9.0,61,0.00,,---,0.00,VWS V14.01,2013-05-25 00:30:00,
2013-05-24 19:40:00,73.5,58.3,30.51,South,180,6.0,14.0,59,0.00,,---,0.00,VWS V14.01,2013-05-25 00:40:00,
2013-05-24 19:50:00,72.8,58.1,30.51,South,180,6.0,13.0,60,0.00,,---,0.00,VWS V14.01,2013-05-25 00:50:00,
2013-05-24 20:00:00,72.7,58.0,30.52,SSE,158,5.0,10.0,60,0.00,,---,0.00,VWS V14.01,2013-05-25 01:00:00,
2013-05-24 20:10:00,72.1,57.9,30.52,SSE,158,5.0,15.0,61,0.00,,---,0.00,VWS V14.01,2013-05-25 01:10:00,
2013-05-24 20:20:00,71.6,57.5,30.51,SSE,158,6.0,13.0,61,0.00,,---,0.00,VWS V14.01,2013-05-25 01:20:00,
2013-05-24 20:30:00,71.1,57.4,30.52,South,180,5.0,11.0,62,0.00,,---,0.00,VWS V14.01,2013-05-25 01:30:00,
2013-05-24 20:40:00,70.8,57.2,30.52,South,180,5.0,12.0,62,0.00,,---,0.00,VWS V14.01,2013-05-25 01:40:00,
2013-05-24 20:50:00,70.3,57.1,30.52,South,180,4.0,10.0,63,0.00,,---,0.00,VWS V14.01,2013-05-25 01:50:00,
2013-05-24 21:00:00,69.6,56.5,30.52,SSE,158,5.0,12.0,63,0.00,,---,0.00,VWS V14.01,2013-05-25 02:00:00,
2013-05-24 21:10:00,69.3,56.6,30.52,SSE,158,3.0,9.0,64,0.00,,---,0.00,VWS V14.01,2013-05-25 02:10:00,
2013-05-24 21:20:00,68.8,56.1,30.52,SSE,158,2.0,8.0,64,0.00,,---,0.00,VWS V14.01,2013-05-25 02:20:00,
2013-05-24 21:30:00,68.3,55.7,30.53,SSE,158,3.0,7.0,64,0.00,,---,0.00,VWS V14.01,2013-05-25 02:30:00,
2013-05-24 21:40:00,67.9,55.7,30.53,SSE,158,1.0,7.0,65,0.00,,---,0.00,VWS V14.01,2013-05-25 02:40:00,
2013-05-24 21:50:00,67.4,55.2,30.54,SE,135,1.0,5.0,65,0.00,,---,0.00,VWS V14.01,2013-05-25 02:50:00,
2013-05-24 22:00:00,67.1,55.0,30.55,South,180,2.0,5.0,65,0.00,,---,0.00,VWS V14.01,2013-05-25 03:00:00,
2013-05-24 22:10:00,66.8,54.7,30.55,South,180,1.0,4.0,65,0.00,,---,0.00,VWS V14.01,2013-05-25 03:10:00,
2013-05-24 22:20:00,66.4,54.7,30.54,SSE,158,2.0,6.0,66,0.00,,---,0.00,VWS V14.01,2013-05-25 03:20:00,
2013-05-24 22:30:00,66.0,54.3,30.54,SSE,158,2.0,5.0,66,0.00,,---,0.00,VWS V14.01,2013-05-25 03:30:00,
2013-05-24 22:40:00,65.6,54.0,30.54,SE,135,2.0,7.0,66,0.00,,---,0.00,VWS V14.01,2013-05-25 03:40:00,
2013-05-24 22:50:00,65.2,53.6,30.54,SE,135,3.0,9.0,66,0.00,,---,0.00,VWS V14.01,2013-05-25 03:50:00,
2013-05-24 23:00:00,64.8,53.2,30.55,SSE,158,2.0,6.0,66,0.00,,---,0.00,VWS V14.01,2013-05-25 04:00:00,
2013-05-24 23:10:00,64.5,52.9,30.55,SSE,158,2.0,5.0,66,0.00,,---,0.00,VWS V14.01,2013-05-25 04:10:00,
2013-05-24 23:20:00,64.2,52.2,30.55,SSE,158,3.0,9.0,65,0.00,,---,0.00,VWS V14.01,2013-05-25 04:20:00,
2013-05-24 23:30:00,64.0,51.6,30.55,SE,135,3.0,7.0,64,0.00,,---,0.00,VWS V14.01,2013-05-25 04:30:00,
2013-05-24 23:40:00,63.9,51.5,30.55,SE,135,2.0,4.0,64,0.00,,---,0.00,VWS V14.01,2013-05-25 04:40:00,
2013-05-24 23:50:00,63.7,50.9,30.55,SSE,158,2.0,6.0,63,0.00,,---,0.00,VWS V14.01,2013-05-25 04:50:00,